Time,TemperatureF,DewpointF,PressureIn,WindDirection,WindDirectionDegrees,WindSpeedMPH,WindSpeedGustMPH,Humidity,HourlyPrecipIn,Conditions,Clouds,dailyrainin,SoftwareType,DateUTC
2013-08-30 00:03:00,53.1,52.0,30.00,SSW,202,0.0,1.0,95,0.00,,,0.00,weatherlink.com 1.10,2013-08-30 06:03:00,
2013-08-30 00:18:00,52.9,51.0,30.00,SSW,194,0.0,2.0,94,0.00,,,0.00,weatherlink.com 1.10,2013-08-30 06:18:00,
2013-08-30 00:33:00,52.7,51.0,30.00,SSW,194,0.0,0.0,94,0.00,,,0.00,weatherlink.com 1.10,2013-08-30 06:33:00,
2013-08-30 00:48:00,52.4,51.0,29.99,SSW,198,0.0,1.0,95,0.00,,,0.00,weatherlink.com 1.10,2013-08-30 06:48:00,
2013-08-30 01:03:00,52.3,51.0,29.99,SSW,198,0.0,0.0,95,0.00,,,0.00,weatherlink.com 1.10,2013-08-30 07:03:00,
2013-08-30 01:18:00,52.2,51.0,29.99,SSW,198,0.0,0.0,95,0.00,,,0.00,weatherlink.com 1.10,2013-08-30 07:18:00,
2013-08-30 01:33:00,52.1,51.0,29.98,SSW,198,0.0,0.0,95,0.00,,,0.00,weatherlink.com 1.10,2013-08-30 07:33:00,
2013-08-30 01:48:00,52.0,51.0,29.98,SSW,198,0.0,0.0,96,0.00,,,0.00,weatherlink.com 1.10,2013-08-30 07:48:00,
2013-08-30 02:03:00,51.7,51.0,29.98,SSW,198,0.0,0.0,96,0.01,,,0.01,weatherlink.com 1.10,2013-08-30 08:03:00,
2013-08-30 02:18:00,51.5,50.0,29.98,SSW,198,0.0,0.0,96,0.01,,,0.01,weatherlink.com 1.10,2013-08-30 08:18:00,
2013-08-30 02:33:00,51.4,50.0,29.98,SSW,198,0.0,0.0,96,0.01,,,0.01,weatherlink.com 1.10,2013-08-30 08:33:00,
2013-08-30 02:48:00,51.1,50.0,29.97,SSW,198,0.0,1.0,96,0.01,,,0.01,weatherlink.com 1.10,2013-08-30 08:48:00,
2013-08-30 03:03:00,50.9,50.0,29.97,SSW,198,0.0,0.0,96,0.00,,,0.01,weatherlink.com 1.10,2013-08-30 09:03:00,
2013-08-30 03:18:00,50.1,49.0,29.97,SSW,198,0.0,0.0,96,0.00,,,0.01,weatherlink.com 1.10,2013-08-30 09:18:00,
2013-08-30 03:33:00,49.9,49.0,29.96,SSW,198,0.0,0.0,96,0.00,,,0.01,weatherlink.com 1.10,2013-08-30 09:33:00,
2013-08-30 03:48:00,49.6,49.0,29.97,SSW,198,0.0,0.0,96,0.00,,,0.01,weatherlink.com 1.10,2013-08-30 09:48:00,
2013-08-30 04:04:00,49.4,48.0,29.97,SSW,198,0.0,0.0,96,0.00,,,0.01,weatherlink.com 1.10,2013-08-30 10:04:00,
2013-08-30 04:19:00,49.2,48.0,29.97,SSW,198,1.0,1.0,96,0.00,,,0.01,weatherlink.com 1.10,2013-08-30 10:19:00,
2013-08-30 04:34:00,49.1,48.0,29.97,SSW,198,0.0,0.0,96,0.00,,,0.01,weatherlink.com 1.10,2013-08-30 10:34:00,
2013-08-30 04:49:00,48.9,48.0,29.97,SSW,211,1.0,2.0,96,0.00,,,0.01,weatherlink.com 1.10,2013-08-30 10:49:00,
2013-08-30 05:04:00,48.8,48.0,29.97,SSW,210,0.0,2.0,96,0.00,,,0.01,weatherlink.com 1.10,2013-08-30 11:04:00,
2013-08-30 05:19:00,48.7,48.0,29.97,SSW,210,0.0,1.0,96,0.00,,,0.01,weatherlink.com 1.10,2013-08-30 11:19:00,
2013-08-30 05:34:00,48.6,48.0,29.96,SSW,210,1.0,1.0,96,0.00,,,0.01,weatherlink.com 1.10,2013-08-30 11:34:00,
2013-08-30 05:49:00,48.6,48.0,29.96,SSW,210,0.0,1.0,96,0.00,,,0.01,weatherlink.com 1.10,2013-08-30 11:49:00,
2013-08-30 06:04:00,48.5,48.0,29.96,SSW,210,0.0,0.0,96,0.00,,,0.01,weatherlink.com 1.10,2013-08-30 12:04:00,
2013-08-30 06:19:00,48.4,47.0,29.97,SSW,210,0.0,1.0,96,0.00,,,0.01,weatherlink.com 1.10,2013-08-30 12:19:00,
2013-08-30 06:34:00,48.3,47.0,29.97,SSW,210,0.0,1.0,96,0.00,,,0.01,weatherlink.com 1.10,2013-08-30 12:34:00,
2013-08-30 06:49:00,48.4,47.0,29.97,SSW,210,0.0,1.0,96,0.00,,,0.01,weatherlink.com 1.10,2013-08-30 12:49:00,
2013-08-30 07:04:00,48.5,48.0,29.98,SSW,210,0.0,1.0,96,0.00,,,0.01,weatherlink.com 1.10,2013-08-30 13:04:00,
2013-08-30 07:19:00,48.5,48.0,29.98,SSW,210,0.0,1.0,96,0.00,,,0.01,weatherlink.com 1.10,2013-08-30 13:19:00,
2013-08-30 07:34:00,48.8,48.0,29.98,SSW,210,0.0,1.0,96,0.00,,,0.01,weatherlink.com 1.10,2013-08-30 13:34:00,
2013-08-30 07:49:00,49.7,49.0,29.98,SSW,210,0.0,1.0,97,0.00,,,0.01,weatherlink.com 1.10,2013-08-30 13:49:00,
2013-08-30 08:04:00,51.3,51.0,29.98,SSW,210,0.0,1.0,97,0.00,,,0.01,weatherlink.com 1.10,2013-08-30 14:04:00,
2013-08-30 08:19:00,52.3,52.0,29.97,SSW,210,0.0,0.0,97,0.00,,,0.01,weatherlink.com 1.10,2013-08-30 14:19:00,
2013-08-30 08:34:00,55.9,53.0,29.96,SSW,209,0.0,1.0,90,0.00,,,0.01,weatherlink.com 1.10,2013-08-30 14:34:00,
2013-08-30 08:49:00,57.0,53.0,29.95,SSW,205,0.0,1.0,86,0.00,,,0.01,weatherlink.com 1.10,2013-08-30 14:49:00,
2013-08-30 09:04:00,58.5,54.0,29.94,SSW,205,0.0,0.0,85,0.00,,,0.01,weatherlink.com 1.10,2013-08-30 15:04:00,
2013-08-30 09:19:00,58.3,53.0,29.94,South,172,1.0,3.0,81,0.00,,,0.01,weatherlink.com 1.10,2013-08-30 15:19:00,
2013-08-30 09:34:00,58.1,54.0,29.94,South,172,0.0,1.0,85,0.00,,,0.01,weatherlink.com 1.10,2013-08-30 15:34:00,
2013-08-30 09:49:00,59.1,54.0,29.94,South,172,0.0,1.0,84,0.00,,,0.01,weatherlink.com 1.10,2013-08-30 15:49:00,
2013-08-30 10:04:00,59.9,54.0,29.94,South,172,0.0,2.0,80,0.00,,,0.01,weatherlink.com 1.10,2013-08-30 16:04:00,
2013-08-30 10:19:00,60.2,55.0,29.93,SSE,151,3.0,6.0,82,0.00,,,0.01,weatherlink.com 1.10,2013-08-30 16:19:00,
2013-08-30 10:34:00,60.3,53.0,29.93,SSE,165,2.0,4.0,76,0.00,,,0.01,weatherlink.com 1.10,2013-08-30 16:34:00,
2013-08-30 10:49:00,61.0,52.0,29.92,South,170,1.0,3.0,71,0.00,,,0.01,weatherlink.com 1.10,2013-08-30 16:49:00,
2013-08-30 11:04:00,63.0,54.0,29.92,South,176,1.0,2.0,72,0.00,,,0.01,weatherlink.com 1.10,2013-08-30 17:04:00,
2013-08-30 11:19:00,65.9,52.0,29.91,South,170,0.0,3.0,61,0.00,,,0.01,weatherlink.com 1.10,2013-08-30 17:19:00,
2013-08-30 11:34:00,69.0,51.0,29.90,South,181,0.0,3.0,53,0.00,,,0.01,weatherlink.com 1.10,2013-08-30 17:34:00,
2013-08-30 11:49:00,70.7,48.0,29.90,South,185,1.0,3.0,44,0.00,,,0.01,weatherlink.com 1.10,2013-08-30 17:49:00,
2013-08-30 12:04:00,69.1,53.0,29.90,SSE,159,3.0,7.0,56,0.00,,,0.01,weatherlink.com 1.10,2013-08-30 18:04:00,
2013-08-30 12:20:00,69.7,50.0,29.89,SE,146,3.0,5.0,49,0.00,,,0.01,weatherlink.com 1.10,2013-08-30 18:20:00,
2013-08-30 12:35:00,70.4,47.0,29.89,SSE,153,3.0,5.0,43,0.00,,,0.01,weatherlink.com 1.10,2013-08-30 18:35:00,
2013-08-30 12:50:00,70.1,46.0,29.89,SSE,165,2.0,6.0,43,0.00,,,0.01,weatherlink.com 1.10,2013-08-30 18:50:00,
2013-08-30 13:05:00,71.2,43.0,29.89,South,171,1.0,5.0,37,0.00,,,0.01,weatherlink.com 1.10,2013-08-30 19:05:00,
2013-08-30 13:20:00,72.8,40.0,29.88,South,173,2.0,7.0,30,0.00,,,0.01,weatherlink.com 1.10,2013-08-30 19:20:00,
2013-08-30 13:35:00,73.6,41.0,29.88,South,179,1.0,5.0,31,0.00,,,0.01,weatherlink.com 1.10,2013-08-30 19:35:00,
2013-08-30 13:50:00,74.1,41.0,29.87,South,174,1.0,7.0,30,0.00,,,0.01,weatherlink.com 1.10,2013-08-30 19:50:00,
2013-08-30 14:05:00,74.6,41.0,29.87,South,176,0.0,9.0,30,0.00,,,0.01,weatherlink.com 1.10,2013-08-30 20:05:00,
2013-08-30 14:20:00,74.8,42.0,29.86,ESE,110,9.0,13.0,31,0.00,,,0.01,weatherlink.com 1.10,2013-08-30 20:20:00,
2013-08-30 14:35:00,72.8,42.0,29.86,SSE,155,5.0,12.0,33,0.00,,,0.01,weatherlink.com 1.10,2013-08-30 20:35:00,
2013-08-30 14:50:00,72.0,43.0,29.86,SE,146,3.0,5.0,35,0.00,,,0.01,weatherlink.com 1.10,2013-08-30 20:50:00,
2013-08-30 15:05:00,72.9,40.0,29.85,SSE,157,3.0,5.0,30,0.00,,,0.01,weatherlink.com 1.10,2013-08-30 21:05:00,
2013-08-30 15:20:00,73.1,41.0,29.84,South,186,1.0,5.0,31,0.00,,,0.01,weatherlink.com 1.10,2013-08-30 21:20:00,
2013-08-30 15:35:00,73.2,44.0,29.84,South,174,0.0,7.0,35,0.00,,,0.01,weatherlink.com 1.10,2013-08-30 21:35:00,
2013-08-30 15:50:00,72.6,44.0,29.84,South,178,0.0,5.0,36,0.00,,,0.01,weatherlink.com 1.10,2013-08-30 21:50:00,
2013-08-30 16:05:00,72.3,50.0,29.84,SSW,199,0.0,1.0,45,0.00,,,0.01,weatherlink.com 1.10,2013-08-30 22:05:00,
2013-08-30 16:20:00,72.0,46.0,29.84,SSW,198,1.0,2.0,39,0.00,,,0.01,weatherlink.com 1.10,2013-08-30 22:20:00,
2013-08-30 16:35:00,71.8,45.0,29.84,SSW,203,1.0,7.0,38,0.00,,,0.01,weatherlink.com 1.10,2013-08-30 22:35:00,
2013-08-30 16:50:00,71.7,45.0,29.83,SSW,197,0.0,6.0,39,0.00,,,0.01,weatherlink.com 1.10,2013-08-30 22:50:00,
2013-08-30 17:05:00,71.5,45.0,29.83,SSW,202,1.0,7.0,39,0.00,,,0.01,weatherlink.com 1.10,2013-08-30 23:05:00,
2013-08-30 17:20:00,71.2,47.0,29.83,SSW,193,0.0,3.0,42,0.00,,,0.01,weatherlink.com 1.10,2013-08-30 23:20:00,
2013-08-30 17:35:00,70.2,49.0,29.83,SSW,207,0.0,3.0,47,0.00,,,0.01,weatherlink.com 1.10,2013-08-30 23:35:00,
2013-08-30 17:50:00,68.4,49.0,29.84,SSW,205,0.0,0.0,50,0.00,,,0.01,weatherlink.com 1.10,2013-08-30 23:50:00,
2013-08-30 18:05:00,67.1,50.0,29.83,SSW,205,0.0,0.0,54,0.00,,,0.01,weatherlink.com 1.10,2013-08-31 00:05:00,
2013-08-30 18:20:00,66.5,51.0,29.83,SSW,205,0.0,0.0,58,0.00,,,0.01,weatherlink.com 1.10,2013-08-31 00:20:00,
2013-08-30 18:35:00,65.8,51.0,29.82,SSW,205,0.0,0.0,59,0.00,,,0.01,weatherlink.com 1.10,2013-08-31 00:35:00,
2013-08-30 18:50:00,65.9,51.0,29.82,SSW,205,0.0,0.0,59,0.00,,,0.01,weatherlink.com 1.10,2013-08-31 00:50:00,
2013-08-30 19:05:00,65.2,49.0,29.82,SSW,205,0.0,0.0,57,0.00,,,0.01,weatherlink.com 1.10,2013-08-31 01:05:00,
2013-08-30 19:20:00,63.5,49.0,29.84,SSW,205,0.0,1.0,59,0.00,,,0.01,weatherlink.com 1.10,2013-08-31 01:20:00,
2013-08-30 19:35:00,62.4,50.0,29.84,SSW,206,1.0,1.0,64,0.00,,,0.01,weatherlink.com 1.10,2013-08-31 01:35:00,
2013-08-30 19:50:00,62.0,50.0,29.86,SSW,207,1.0,4.0,64,0.00,,,0.01,weatherlink.com 1.10,2013-08-31 01:50:00,
2013-08-30 20:05:00,61.6,46.0,29.87,SSW,205,0.0,2.0,57,0.00,,,0.01,weatherlink.com 1.10,2013-08-31 02:05:00,
2013-08-30 20:20:00,61.1,47.0,29.88,SSW,202,0.0,0.0,60,0.00,,,0.01,weatherlink.com 1.10,2013-08-31 02:20:00,
2013-08-30 20:35:00,60.7,49.0,29.88,SSW,203,0.0,0.0,65,0.00,,,0.01,weatherlink.com 1.10,2013-08-31 02:35:00,
2013-08-30 20:50:00,60.0,49.0,29.88,SSW,200,0.0,1.0,68,0.00,,,0.01,weatherlink.com 1.10,2013-08-31 02:50:00,
2013-08-30 21:05:00,59.1,48.0,29.89,SSW,201,0.0,0.0,68,0.00,,,0.01,weatherlink.com 1.10,2013-08-31 03:05:00,
2013-08-30 21:20:00,58.6,49.0,29.89,SSW,200,0.0,0.0,70,0.00,,,0.01,weatherlink.com 1.10,2013-08-31 03:20:00,
2013-08-30 21:35:00,58.1,49.0,29.89,SSW,200,0.0,0.0,72,0.00,,,0.01,weatherlink.com 1.10,2013-08-31 03:35:00,
2013-08-30 21:50:00,57.6,49.0,29.89,SSW,201,0.0,1.0,74,0.00,,,0.01,weatherlink.com 1.10,2013-08-31 03:50:00,
2013-08-30 22:05:00,57.0,49.0,29.89,SSW,200,0.0,1.0,74,0.00,,,0.01,weatherlink.com 1.10,2013-08-31 04:05:00,
2013-08-30 22:20:00,56.6,48.0,29.89,SSW,200,0.0,0.0,73,0.00,,,0.01,weatherlink.com 1.10,2013-08-31 04:20:00,
2013-08-30 22:35:00,55.9,48.0,29.89,SSW,200,0.0,0.0,76,0.00,,,0.01,weatherlink.com 1.10,2013-08-31 04:35:00,
2013-08-30 22:50:00,55.7,49.0,29.89,SSW,200,0.0,1.0,78,0.00,,,0.01,weatherlink.com 1.10,2013-08-31 04:50:00,
2013-08-30 23:05:00,55.4,49.0,29.89,SSW,200,0.0,0.0,79,0.00,,,0.01,weatherlink.com 1.10,2013-08-31 05:05:00,
2013-08-30 23:20:00,54.9,50.0,29.89,SSW,200,0.0,0.0,82,0.00,,,0.01,weatherlink.com 1.10,2013-08-31 05:20:00,
2013-08-30 23:35:00,54.2,49.0,29.88,SSW,200,1.0,1.0,81,0.00,,,0.01,weatherlink.com 1.10,2013-08-31 05:35:00,
2013-08-30 23:50:00,53.8,48.0,29.88,SSW,200,0.0,0.0,81,0.00,,,0.01,weatherlink.com 1.10,2013-08-31 05:50:00,